User: anonymous   Login
Location: Theydon Bois
(51.6750°N, 0.1050°E)
Time: 15:02:08
(UTC+00:00)
Language:

SJ-6B - Orbit

View from above orbital plane
View from above orbital plane
View from above satellite
View from above satellite

Ground track
Ground track

The orbit data is extracted from the following two-line orbital elements,

1 28415U 04035C   18053.12455593  .00000081  00000-0  98546-5 0  9999
2 28415  97.7210  88.2262 0051850 354.2617   5.8009 15.06424849736206
Epoch (UTC): 22 February 2018 02:59:21
Eccentricity: 0.0051850
inclination: 97.7210°
perigee height: 511 km
apogee height: 583 km
right ascension of ascending node: 88.2262°
argument of perigee: 354.2617°
revolutions per day: 15.06424849
mean anomaly at epoch: 5.8009°
orbit number at epoch: 73620

The dashed part of the orbit path shows where the satellite is in the earth's shadow,  

DLR